Flag for United Kingdom Weather past 2 weeks in Taunton, England, United Kingdom

Now
51 °F

Drizzle. Overcast.


Feels Like: 46 °F
Forecast: 44 / 54 °F
Wind: 15 mph from Southwest

Location: Dunkeswell Aerodrome

Current Time: Dec 19, 2014 at 2:02:00 AM

Latest Report: Dec 19, 2014 at 1:00 AM


Visibility: 2 mi

Pressure: 29.88 "Hg

Humidity: 98%

Dew point: 51 °F

Location of TauntonLocation

Historic Weather in Taunton — Graph

°F

Taunton temperature yesterday

Maximum temperature yesterday: 52 °F (at 2:00 PM)
Minimum temperature yesterday: 50 °F (at 9:00 AM)
Average temperature yesterday: 51 °F

Past Weeks' High & Low Weather Summary

 TemperatureHumidityPressure
High52 °F (Dec 18, 2:00 PM)100% (Dec 7, 1:00 AM)30.43 "Hg (Dec 7, 1:00 AM)
Low33 °F (Dec 13, 3:00 AM)62% (Dec 10, 1:00 PM)29.32 "Hg (Dec 12, 5:00 AM)
Average42 °F90%30.01 "Hg
* Reported Midnight between Dec 3 and Dec 4 — Midnight between Dec 18 and Dec 19, Taunton, Weather by CustomWeather, © 2014

Note: Actual official high and low records may vary slightly from our data, if they occured in-between our weather recording intervals... More about our weather records

Advertising

Taunton weather history for previous 24 hours

 ConditionsComfort  
Time TempWeatherWind HumidityBarometerVisibility
12:00 AM
Dec 19
52 °FDrizzle. Overcast.18 mph96%29.89 "Hg3 mi
11:00 PM
Dec 18
51 °FCool.13 mph99%29.90 "Hg22 mi
10:00 PM51 °FDrizzle. Overcast.12 mph99%29.91 "Hg1 mi
8:00 PM51 °FDrizzle. Overcast.17 mph98%29.93 "Hg2 mi
7:00 PM51 °FDrizzle. Overcast.20 mph96%29.92 "Hg5 mi
6:00 PM51 °FDrizzle. Overcast.17 mph97%29.92 "Hg4 mi
5:00 PM51 °FDrizzle. Overcast.17 mph97%29.92 "Hg1 mi
4:00 PM51 °FCool.18 mph96%29.92 "Hg6 mi
3:00 PM52 °FDrizzle. Cloudy.20 mph95%29.90 "Hg5 mi
2:00 PM52 °FCool.20 mph93%29.91 "Hg22 mi
1:00 PM52 °FDrizzle. Cloudy.16 mph95%29.92 "Hg7 mi
12:00 PM52 °FCool.21 mph94%29.93 "Hg19 mi
11:00 AM51 °FCool.18 mph94%29.94 "Hg22 mi
10:00 AM50 °FDrizzle. Cloudy.20 mph97%29.94 "Hg6 mi
9:00 AM50 °FCool.17 mph98%29.93 "Hg14 mi
8:00 AM51 °FCool.17 mph100%29.91 "Hg9 mi
7:00 AM51 °FDrizzle. Overcast.18 mph100%29.90 "Hg4 mi
6:00 AM51 °FCool.16 mph99%29.90 "Hg7 mi
5:00 AM51 °FDrizzle. Overcast.17 mph99%29.90 "Hg5 mi
4:00 AM51 °FDrizzle. Overcast.15 mph99%29.90 "Hg3 mi
2:00 AM51 °FCool.18 mph99%29.89 "Hg4 mi
Weather by CustomWeather, © 2014

See weather overviewHow to use our weather pages